SAUDICOMSAT 7

Satellite information

Favourite Embed

Satellite Type and Status

PAYLOADIN ORBIT

Key statistics

Satellite SAUDICOMSAT 7 at a glance.

Uptime

6760

Days in orbit

Revolutions

≈ 14.7

Per day

Orbit

SSO

Sun Synchronous Orbit

Inclination

98.3

Latest

Satellite identification and parameters

Extended collection of information and parameters for SAUDICOMSAT 7.

Object identification

Identified? True

Debris? False

Object name: SAUDICOMSAT 7

International designator: 2007-012C

Object number (NORAD): 31119

Object ID (CCSDS): 31119

Country: SAUDI ARABIA (SAUD)

Current information (Y/N): Y

RCS size: SMALL

Orbital parameters

Period: 98.251 minutes

Inclination: 98.3456 deg

SMA: 7053.157 km

Apoapsis: 713.807 km

Periapsis: 636.237 km

RAAN: 256.6234 deg

Eccentricy: 0.00549894

Argument of periapsis: 231.9803 deg

Mean anomaly: 127.6429 deg

Mean motion: 14.65640385 rev/day

Mean motion (dot): 0.00001317 rev/day2

B* drag term: 0.00024671487 1/REarth

Two-line elements (TLE)

Creation date: Oct. 19, 2025, 2:20 a.m.

Reference frame: TEME

Reference center: EARTH

Epoch: Oct. 18, 2025, 9:22 p.m. UTC

TLE line 0: 0 SAUDICOMSAT 7

TLE line 1: 1 31119U 07012C 25291.89053603 .00001317 00000-0 24671-3 0 9993

TLE line 2: 2 31119 98.3456 256.6234 0054989 231.9803 127.6429 14.65640385987086

Live tracking on map

Real-time ground track for satellite SAUDICOMSAT 7.

In-orbit conjunctions

There are no conjunctions computed for SAUDICOMSAT 7, at the moment. Check back to stay up to date, as we update our databases every day.

Go to all conjunctions

Associated space launch

Rideshare mission with Egyptian and Saudi Arabian Earth observation satellites as well as 14 American cubesats

SAUDICOMSAT 7 was lifted into orbit during the mission ‘Dnepr | EgyptSat 1 & Saudisat 3’, on board a Dnepr space rocket.

The launch took place on April 17, 2007, 6:46 a.m. from 109/95.

For more information about the launch, click the button.

Launch to space Dnepr | EgyptSat 1 & Saudisat 3
Dnepr | EgyptSat 1 & Saudisat 3

Agency: N/A

Status: Launch Successful

Launch date: April 17, 2007, 6:46 a.m. UTC

Rocket: Dnepr

Launch pad: 109/95

Location: Baikonur Cosmodrome, Republic of Kazakhstan

...

Latest news about this satellite

There are no fresh news available about this satellite. Check back as we update our databases every day.


Newsletter sign-up

Weekly statistics, charts and insights to help you stay on top of the space industry.